Flagstaff, AZ

7:28 PM MST on June 28, 2017 (GMT -0700)
Flagstaff Pulliam

Weather History for KFLG - February, 2012

Change the Weather History Date:

Thursday, February 23, 2012

  Actual Average Record
Temperature  
Mean Temperature 43 °F 33 °F  
Max Temperature 56 °F 46 °F 66 °F (1946)
Min Temperature 30 °F 20 °F -6 °F (1960)
Degree Days  
Heating Degree Days 22 32  
Month to date heating degree days 756 765  
Since 1 July heating degree days 4492 4681  
Cooling Degree Days 0 0  
Month to date cooling degree days 0 0  
Year to date cooling degree days 0 0  
Moisture  
Dew Point 14 °F    
Average Humidity 41    
Maximum Humidity 70    
Minimum Humidity 12    
Precipitation  
Precipitation 0.00 in 0.08 in 1.30 in (2015)
Month to date precipitation 0.75 1.76  
Year to date precipitation 1.17 3.81  
Snow  
Snow 0.00 in 0.60 in 6.50 in (2015)
Month to date snowfall 10.7 17.5  
Since 1 July snowfall 60.9 69.8  
Snow Depth 0.00 in    
Sea Level Pressure  
Sea Level Pressure 29.87 in    
Wind  
Wind Speed 7 mph (SW)    
Max Wind Speed 18 mph    
Max Gust Speed 26 mph    
Visibility 10 miles    
Events      
T = Trace of Precipitation, MM = Missing Value Source: NWS Daily Summary

Daily Weather History Graph

Daily Weather History Graph

Search for Another Location

Airport or City:

Trip Planner

Search our weather history database for the weather conditions in past years. The results will help you decide how hot, cold, wet, or windy it might be!

Date:

Astronomy

Feb. 23, 2012 Rise Set
Actual Time 7:04 AM MST 6:16 PM MST
Civil Twilight 6:38 AM MST 6:42 PM MST
Nautical Twilight 6:09 AM MST 7:11 PM MST
Astronomical Twilight 5:39 AM MST 7:40 PM MST
Moon 7:38 AM MST (2/23) 8:18 PM MST (2/23)
Length of Visible Light 12h 03m
Length of Day
11h 12m
Waxing Crescent, 3% of the Moon is Illuminated
Feb 23
Waxing Crescent
Feb 29
First Quarter
Mar 8
Full
Mar 14
Last Quarter
Mar 22
New

Hourly Weather History & Observations

Time (MST) Temp. Windchill Dew Point Humidity Pressure Visibility Wind Dir Wind Speed Gust Speed Precip Events Conditions
12:57 AM 33.1 °F 28.7 °F 25.0 °F 72% 29.88 in 10.0 mi SSW 4.6 mph - N/A   Clear
1:57 AM 35.1 °F - 26.1 °F 70% 29.85 in 10.0 mi Calm Calm - N/A   Clear
2:57 AM 37.0 °F 33.3 °F 19.9 °F 50% 29.83 in 10.0 mi Variable 4.6 mph - N/A   Clear
3:57 AM 30.9 °F 26.2 °F 19.0 °F 61% 29.82 in 10.0 mi SW 4.6 mph - N/A   Clear
4:57 AM 35.1 °F 29.3 °F 19.0 °F 52% 29.81 in 10.0 mi WSW 6.9 mph - N/A   Clear
5:57 AM 34.0 °F - 19.0 °F 54% 29.82 in 10.0 mi Calm Calm - N/A   Clear
6:57 AM 30.0 °F 21.7 °F 21.0 °F 69% 29.87 in 10.0 mi SW 9.2 mph - N/A   Clear
7:57 AM 37.0 °F - 21.0 °F 52% 29.86 in 10.0 mi Calm Calm - N/A   Clear
8:57 AM 41.0 °F 36.4 °F 21.9 °F 47% 29.86 in 10.0 mi South 6.9 mph - N/A   Clear
9:57 AM 48.9 °F - 19.9 °F 32% 29.84 in 10.0 mi Variable 6.9 mph - N/A   Clear
10:57 AM 53.1 °F - 21.0 °F 29% 29.84 in 10.0 mi Variable 6.9 mph 18.4 mph N/A   Clear
11:57 AM 54.0 °F - 12.9 °F 20% 29.83 in 10.0 mi Variable 5.8 mph 23.0 mph N/A   Clear
12:57 PM 55.0 °F - 10.9 °F 17% 29.83 in 10.0 mi Variable 5.8 mph 20.7 mph N/A   Clear
1:57 PM 54.0 °F - 10.0 °F 17% 29.81 in 10.0 mi West 11.5 mph 23.0 mph N/A   Clear
2:57 PM 55.9 °F - 6.1 °F 14% 29.80 in 10.0 mi WNW 10.4 mph 19.6 mph N/A   Clear
3:57 PM 55.0 °F - 5.0 °F 13% 29.85 in 10.0 mi NW 9.2 mph 20.7 mph N/A   Clear
4:57 PM 53.1 °F - 3.9 °F 14% 29.84 in 10.0 mi Variable 4.6 mph - N/A   Clear
5:57 PM 50.0 °F - 3.0 °F 15% 29.86 in 10.0 mi West 6.9 mph - N/A   Clear
6:57 PM 39.9 °F - 10.9 °F 31% 29.94 in 10.0 mi Calm Calm - N/A   Clear
7:57 PM 41.0 °F 34.3 °F 16.0 °F 36% 29.94 in 10.0 mi ENE 11.5 mph - N/A   Clear
8:57 PM 37.0 °F 30.4 °F 10.9 °F 34% 29.96 in 10.0 mi ENE 9.2 mph - N/A   Clear
9:57 PM 35.1 °F 27.4 °F 3.0 °F 26% 29.95 in 10.0 mi East 10.4 mph - N/A   Clear
10:57 PM 34.0 °F 24.2 °F -0.0 °F 24% 29.94 in 10.0 mi ENE 15.0 mph 20.7 mph N/A   Clear
11:57 PM 32.0 °F 21.2 °F 3.0 °F 29% 29.96 in 10.0 mi ENE 16.1 mph 20.7 mph N/A   Clear